Year,Month,Day,Hour,Minute,Value (Times are PST for temperature in C)
2013,11,19,07,40,2.70
2013,11,19,07,41,2.70
2013,11,19,07,42,2.70
2013,11,19,07,43,2.70
2013,11,19,07,44,2.70
2013,11,19,07,45,2.70
2013,11,19,07,46,2.70
2013,11,19,07,47,2.70
2013,11,19,07,48,2.70
2013,11,19,07,49,2.70
2013,11,19,07,50,2.70
2013,11,19,07,51,2.70
2013,11,19,07,52,2.70
2013,11,19,07,53,2.70
2013,11,19,07,54,2.70
2013,11,19,07,55,2.70
2013,11,19,07,56,2.70
2013,11,19,07,57,2.70
2013,11,19,07,58,2.70
2013,11,19,07,59,2.70
2013,11,19,08,00,2.70
2013,11,19,08,01,2.60
2013,11,19,08,02,2.60
2013,11,19,08,03,2.60
2013,11,19,08,04,2.60
2013,11,19,08,05,2.60
2013,11,19,08,06,2.60
2013,11,19,08,07,2.60
2013,11,19,08,08,2.60
2013,11,19,08,09,2.60
2013,11,19,08,10,2.60
2013,11,19,08,11,2.60
2013,11,19,08,12,2.60
2013,11,19,08,13,2.70
2013,11,19,08,14,2.70
2013,11,19,08,15,2.70
2013,11,19,08,16,2.70
2013,11,19,08,17,2.70
2013,11,19,08,18,2.70
2013,11,19,08,19,2.70
2013,11,19,08,20,2.70
2013,11,19,08,21,2.70
2013,11,19,08,22,2.70
2013,11,19,08,23,2.70
2013,11,19,08,24,2.70
2013,11,19,08,25,2.70
2013,11,19,08,26,2.70
2013,11,19,08,27,2.70
2013,11,19,08,28,2.70
2013,11,19,08,29,2.70
2013,11,19,08,30,2.70
2013,11,19,08,31,2.70
2013,11,19,08,32,2.70
2013,11,19,08,33,2.70
2013,11,19,08,34,2.70
2013,11,19,08,35,2.70
2013,11,19,08,36,2.70
2013,11,19,08,37,2.80
2013,11,19,08,38,2.80
2013,11,19,08,39,2.80
2013,11,19,08,40,2.90
2013,11,19,08,41,2.90
2013,11,19,08,42,3.00
2013,11,19,08,43,3.00
2013,11,19,08,44,3.00
2013,11,19,08,45,3.00
2013,11,19,08,46,3.10
2013,11,19,08,47,3.10
2013,11,19,08,48,3.10
2013,11,19,08,49,3.10
2013,11,19,08,50,3.10
2013,11,19,08,51,3.20
2013,11,19,08,52,3.20
2013,11,19,08,53,3.30
2013,11,19,08,54,3.40
2013,11,19,08,55,3.40
2013,11,19,08,56,3.40
2013,11,19,08,57,3.50
2013,11,19,08,58,3.50
2013,11,19,08,59,3.60
2013,11,19,09,00,3.60
2013,11,19,09,01,3.70
2013,11,19,09,02,3.70
2013,11,19,09,03,3.70
2013,11,19,09,04,3.80
2013,11,19,09,05,3.80
2013,11,19,09,06,3.80
2013,11,19,09,07,3.80
2013,11,19,09,08,3.80
2013,11,19,09,09,3.80
2013,11,19,09,10,3.80
2013,11,19,09,11,3.70
2013,11,19,09,12,3.70
2013,11,19,09,13,3.70
2013,11,19,09,14,3.70
2013,11,19,09,15,3.70
2013,11,19,09,16,3.70
2013,11,19,09,17,3.70
2013,11,19,09,18,3.70
2013,11,19,09,19,3.70
2013,11,19,09,20,3.80
2013,11,19,09,21,3.80
2013,11,19,09,22,3.90
2013,11,19,09,23,3.90
2013,11,19,09,24,4.00
2013,11,19,09,25,4.00
2013,11,19,09,26,4.00
2013,11,19,09,27,4.10
2013,11,19,09,28,4.10
2013,11,19,09,29,4.10
2013,11,19,09,30,4.20
2013,11,19,09,31,4.20
2013,11,19,09,32,4.30
2013,11,19,09,33,4.30
2013,11,19,09,34,4.30
2013,11,19,09,35,4.40
2013,11,19,09,36,4.60
2013,11,19,09,37,4.60
2013,11,19,09,38,4.70
2013,11,19,09,39,4.70
2013,11,19,09,40,4.70
2013,11,19,09,41,4.70
2013,11,19,09,42,4.80
2013,11,19,09,43,4.80
2013,11,19,09,44,4.90
2013,11,19,09,45,5.00
2013,11,19,09,46,5.20
2013,11,19,09,47,5.30
2013,11,19,09,48,5.30
2013,11,19,09,49,5.40
2013,11,19,09,50,5.50
2013,11,19,09,51,5.60
2013,11,19,09,52,5.60
2013,11,19,09,53,5.60
2013,11,19,09,54,5.50
2013,11,19,09,55,5.60
2013,11,19,09,56,5.60
2013,11,19,09,57,5.70
2013,11,19,09,58,5.70
2013,11,19,09,59,5.70
2013,11,19,10,00,5.60
2013,11,19,10,01,5.60
2013,11,19,10,02,5.60
2013,11,19,10,03,5.60
2013,11,19,10,04,5.50
2013,11,19,10,05,5.50
2013,11,19,10,06,5.60
2013,11,19,10,07,5.70
2013,11,19,10,08,5.70
2013,11,19,10,09,5.60
2013,11,19,10,10,5.60
2013,11,19,10,11,5.70
2013,11,19,10,12,5.70
2013,11,19,10,13,5.80
2013,11,19,10,14,5.80
2013,11,19,10,15,5.90
2013,11,19,10,16,5.90
2013,11,19,10,17,6.00
2013,11,19,10,18,6.10
2013,11,19,10,19,6.20
2013,11,19,10,20,6.20
2013,11,19,10,21,6.20
2013,11,19,10,22,6.30
2013,11,19,10,23,6.30
2013,11,19,10,24,6.30
2013,11,19,10,25,6.40
2013,11,19,10,26,6.50
2013,11,19,10,27,6.50
2013,11,19,10,28,6.60
2013,11,19,10,29,6.70
2013,11,19,10,30,6.80
2013,11,19,10,31,6.80
2013,11,19,10,32,6.80
2013,11,19,10,33,6.90
2013,11,19,10,34,6.90
2013,11,19,10,35,6.90
2013,11,19,10,36,7.00
2013,11,19,10,37,7.00
2013,11,19,10,38,7.00
2013,11,19,10,39,7.00
2013,11,19,10,40,7.00
2013,11,19,10,41,6.90
2013,11,19,10,42,6.90
2013,11,19,10,43,6.80
2013,11,19,10,44,6.80
2013,11,19,10,45,6.80
2013,11,19,10,46,6.70
2013,11,19,10,47,6.70
2013,11,19,10,48,6.70
2013,11,19,10,49,6.70
2013,11,19,10,50,6.70
2013,11,19,10,51,6.60
2013,11,19,10,52,6.60
2013,11,19,10,53,6.60
2013,11,19,10,54,6.50
2013,11,19,10,55,6.50
2013,11,19,10,56,6.50
2013,11,19,10,57,6.50
2013,11,19,10,58,6.50
2013,11,19,10,59,6.40
2013,11,19,11,00,6.40
2013,11,19,11,01,6.30
2013,11,19,11,02,6.30
2013,11,19,11,03,6.20
2013,11,19,11,04,6.20
2013,11,19,11,05,6.20
2013,11,19,11,06,6.10
2013,11,19,11,07,6.10
2013,11,19,11,08,6.10
2013,11,19,11,09,6.10
2013,11,19,11,10,6.10
2013,11,19,11,11,6.10
2013,11,19,11,12,6.10
2013,11,19,11,13,6.10
2013,11,19,11,14,6.10
2013,11,19,11,15,6.10
2013,11,19,11,16,6.20
2013,11,19,11,17,6.20
2013,11,19,11,18,6.20
2013,11,19,11,19,6.20
2013,11,19,11,20,6.20
2013,11,19,11,21,6.20
2013,11,19,11,22,6.20
2013,11,19,11,23,6.20
2013,11,19,11,24,6.20
2013,11,19,11,25,6.20
2013,11,19,11,26,6.20
2013,11,19,11,27,6.20
2013,11,19,11,28,6.20
2013,11,19,11,29,6.10
2013,11,19,11,30,6.10
2013,11,19,11,31,6.10
2013,11,19,11,32,6.00
2013,11,19,11,33,6.00
2013,11,19,11,34,6.00
2013,11,19,11,35,6.10
2013,11,19,11,36,6.10
2013,11,19,11,37,6.10
2013,11,19,11,38,6.10
2013,11,19,11,39,6.20
2013,11,19,11,40,6.20
2013,11,19,11,41,6.20
2013,11,19,11,42,6.20
2013,11,19,11,43,6.20
2013,11,19,11,44,6.20
2013,11,19,11,45,6.20
2013,11,19,11,46,6.20
2013,11,19,11,47,6.20
2013,11,19,11,48,6.20
2013,11,19,11,49,6.10
2013,11,19,11,50,6.10
2013,11,19,11,51,6.10
2013,11,19,11,52,6.10
2013,11,19,11,53,6.10
2013,11,19,11,54,6.10
2013,11,19,11,55,6.10
2013,11,19,11,56,6.20
2013,11,19,11,57,6.20
2013,11,19,11,58,6.20
2013,11,19,11,59,6.20
2013,11,19,12,00,6.20
2013,11,19,12,01,6.10
2013,11,19,12,02,6.10
2013,11,19,12,03,6.10
2013,11,19,12,04,6.10
2013,11,19,12,05,6.10
2013,11,19,12,06,6.10
2013,11,19,12,07,6.10
2013,11,19,12,08,6.10
2013,11,19,12,09,6.10
2013,11,19,12,10,6.10
2013,11,19,12,11,6.10
2013,11,19,12,12,6.10
2013,11,19,12,13,6.20
2013,11,19,12,14,6.20
2013,11,19,12,15,6.20
2013,11,19,12,16,6.20
2013,11,19,12,17,6.20
2013,11,19,12,18,6.20
2013,11,19,12,19,6.20
2013,11,19,12,20,6.20
2013,11,19,12,21,6.20
2013,11,19,12,22,6.20
2013,11,19,12,23,6.20
2013,11,19,12,24,6.10
2013,11,19,12,25,6.10
2013,11,19,12,26,6.10
2013,11,19,12,27,6.10
2013,11,19,12,28,6.10
2013,11,19,12,29,6.10
2013,11,19,12,30,6.10
2013,11,19,12,31,6.00
2013,11,19,12,32,6.00
2013,11,19,12,33,6.00
2013,11,19,12,34,6.00
2013,11,19,12,35,6.00
2013,11,19,12,36,6.00
2013,11,19,12,37,6.00
2013,11,19,12,38,6.00
2013,11,19,12,39,6.00
2013,11,19,12,40,6.10
2013,11,19,12,41,6.10
2013,11,19,12,42,6.10
2013,11,19,12,43,6.10
2013,11,19,12,44,6.10
2013,11,19,12,45,6.00
2013,11,19,12,46,6.00
2013,11,19,12,47,6.00
2013,11,19,12,48,5.90
2013,11,19,12,49,5.90
2013,11,19,12,50,5.90
2013,11,19,12,51,5.90
2013,11,19,12,52,5.80
2013,11,19,12,53,5.80
2013,11,19,12,54,5.80
2013,11,19,12,55,5.80
2013,11,19,12,56,5.70
2013,11,19,12,57,5.70
2013,11,19,12,58,5.70
2013,11,19,12,59,5.70
2013,11,19,13,00,5.70
2013,11,19,13,01,5.70
2013,11,19,13,02,5.70
2013,11,19,13,03,5.70
2013,11,19,13,04,5.70
2013,11,19,13,05,5.70
2013,11,19,13,06,5.70
2013,11,19,13,07,5.70
2013,11,19,13,08,5.70
2013,11,19,13,09,5.60
2013,11,19,13,10,5.60
2013,11,19,13,11,5.60
2013,11,19,13,12,5.60
2013,11,19,13,13,5.60
2013,11,19,13,14,5.70
2013,11,19,13,15,5.70
2013,11,19,13,16,5.70
2013,11,19,13,17,5.70
2013,11,19,13,18,5.70
2013,11,19,13,19,5.70
2013,11,19,13,20,5.60
2013,11,19,13,21,5.60
2013,11,19,13,22,5.70
2013,11,19,13,23,5.70
2013,11,19,13,24,5.70
2013,11,19,13,25,5.70
2013,11,19,13,26,5.70
2013,11,19,13,27,5.60
2013,11,19,13,28,5.60
2013,11,19,13,29,5.60
2013,11,19,13,30,5.60
2013,11,19,13,31,5.60
2013,11,19,13,32,5.60
2013,11,19,13,33,5.60
2013,11,19,13,34,5.60
2013,11,19,13,35,5.60
2013,11,19,13,36,5.60
2013,11,19,13,37,5.60
2013,11,19,13,38,5.60
2013,11,19,13,39,5.60
2013,11,19,13,40,5.60
2013,11,19,13,41,5.60
2013,11,19,13,42,5.60
2013,11,19,13,43,5.60
2013,11,19,13,44,5.60
2013,11,19,13,45,5.60
2013,11,19,13,46,5.60
2013,11,19,13,47,5.60
2013,11,19,13,48,5.60
2013,11,19,13,49,5.60
2013,11,19,13,50,5.50
2013,11,19,13,51,5.50
2013,11,19,13,52,5.50
2013,11,19,13,53,5.50
2013,11,19,13,54,5.40
2013,11,19,13,55,5.40
2013,11,19,13,56,5.40
2013,11,19,13,57,5.40
2013,11,19,13,58,5.30
2013,11,19,13,59,5.30
2013,11,19,14,00,5.30
2013,11,19,14,01,5.30
2013,11,19,14,02,5.30
2013,11,19,14,03,5.30
2013,11,19,14,04,5.30
2013,11,19,14,05,5.30
2013,11,19,14,06,5.30
2013,11,19,14,07,5.30
2013,11,19,14,08,5.30
2013,11,19,14,09,5.30
2013,11,19,14,10,5.30
2013,11,19,14,11,5.30
2013,11,19,14,12,5.30
2013,11,19,14,13,5.30
2013,11,19,14,14,5.30
2013,11,19,14,15,5.30
2013,11,19,14,16,5.30
2013,11,19,14,17,5.30
2013,11,19,14,18,5.30
2013,11,19,14,19,5.30
2013,11,19,14,20,5.30
2013,11,19,14,21,5.30
2013,11,19,14,22,5.20
2013,11,19,14,23,5.30
2013,11,19,14,24,5.30
2013,11,19,14,25,5.30
2013,11,19,14,26,5.20
2013,11,19,14,27,5.20
2013,11,19,14,28,5.20
2013,11,19,14,29,5.30
2013,11,19,14,30,5.20
2013,11,19,14,31,5.20
2013,11,19,14,32,5.20
2013,11,19,14,33,5.20
2013,11,19,14,34,5.20
2013,11,19,14,35,5.20
2013,11,19,14,36,5.20
2013,11,19,14,37,5.20
2013,11,19,14,38,5.20
2013,11,19,14,39,5.20
2013,11,19,14,40,5.20
2013,11,19,14,41,5.20
2013,11,19,14,42,5.20
2013,11,19,14,43,5.10
2013,11,19,14,44,5.10
2013,11,19,14,45,5.10
2013,11,19,14,46,5.10
2013,11,19,14,47,5.10
2013,11,19,14,48,5.10
2013,11,19,14,49,5.10
2013,11,19,14,50,5.00
2013,11,19,14,51,5.00
2013,11,19,14,52,5.00
2013,11,19,14,53,4.90
2013,11,19,14,54,4.80
2013,11,19,14,55,4.80
2013,11,19,14,56,4.80
2013,11,19,14,57,4.80
2013,11,19,14,58,4.70
2013,11,19,14,59,4.70
2013,11,19,15,00,4.70
2013,11,19,15,01,4.70
2013,11,19,15,02,4.70
2013,11,19,15,03,4.70
2013,11,19,15,04,4.80
2013,11,19,15,05,4.80
2013,11,19,15,06,4.80
2013,11,19,15,07,4.80
2013,11,19,15,08,4.80
2013,11,19,15,09,4.80
2013,11,19,15,10,4.80
2013,11,19,15,11,4.70
2013,11,19,15,12,4.70
2013,11,19,15,13,4.70
2013,11,19,15,14,4.70
2013,11,19,15,15,4.60
2013,11,19,15,16,4.60
2013,11,19,15,17,4.60
2013,11,19,15,18,4.50
2013,11,19,15,19,4.50
2013,11,19,15,20,4.50
2013,11,19,15,21,4.50
2013,11,19,15,22,4.50
2013,11,19,15,23,4.50
2013,11,19,15,24,4.60
2013,11,19,15,25,4.60
2013,11,19,15,26,4.60
2013,11,19,15,27,4.60
2013,11,19,15,28,4.60
2013,11,19,15,29,4.60
2013,11,19,15,30,4.60
2013,11,19,15,31,4.60
2013,11,19,15,32,4.60
2013,11,19,15,33,4.60
2013,11,19,15,34,4.60
2013,11,19,15,35,4.60
2013,11,19,15,36,4.60
2013,11,19,15,37,4.60
2013,11,19,15,38,4.60
2013,11,19,15,39,4.60
2013,11,19,15,40,4.50
2013,11,19,15,41,4.50
2013,11,19,15,42,4.50
2013,11,19,15,43,4.50
2013,11,19,15,44,4.50
2013,11,19,15,45,4.40
2013,11,19,15,46,4.40
2013,11,19,15,47,4.40
2013,11,19,15,48,4.40
2013,11,19,15,49,4.40
2013,11,19,15,50,4.40
2013,11,19,15,51,4.40
2013,11,19,15,52,4.40
2013,11,19,15,53,4.40
2013,11,19,15,54,4.40
2013,11,19,15,55,4.40
2013,11,19,15,56,4.30
2013,11,19,15,57,4.30
2013,11,19,15,58,4.30
2013,11,19,15,59,4.30
2013,11,19,16,00,4.30
2013,11,19,16,01,4.30
2013,11,19,16,02,4.30
2013,11,19,16,03,4.20
2013,11,19,16,04,4.20
2013,11,19,16,05,4.10
2013,11,19,16,06,4.10
2013,11,19,16,07,4.10
2013,11,19,16,08,4.10
2013,11,19,16,09,4.00
2013,11,19,16,10,4.00
2013,11,19,16,11,4.00
2013,11,19,16,12,4.00
2013,11,19,16,13,4.00
2013,11,19,16,14,3.90
2013,11,19,16,15,3.90
2013,11,19,16,16,3.90
2013,11,19,16,17,3.90
2013,11,19,16,18,3.90
2013,11,19,16,19,3.80
2013,11,19,16,20,3.80
2013,11,19,16,21,3.80
2013,11,19,16,22,3.80
2013,11,19,16,23,3.80
2013,11,19,16,24,3.80
2013,11,19,16,25,3.80
2013,11,19,16,26,3.70
2013,11,19,16,27,3.70
2013,11,19,16,28,3.70
2013,11,19,16,29,3.70
2013,11,19,16,30,3.70
2013,11,19,16,31,3.70
2013,11,19,16,32,3.70
2013,11,19,16,33,3.70
2013,11,19,16,34,3.70
2013,11,19,16,35,3.70
2013,11,19,16,36,3.70
2013,11,19,16,37,3.70
2013,11,19,16,38,3.70
2013,11,19,16,39,3.70
2013,11,19,16,40,3.70
2013,11,19,16,41,3.70
2013,11,19,16,42,3.70
2013,11,19,16,43,3.70
2013,11,19,16,44,3.70
2013,11,19,16,45,3.70
2013,11,19,16,46,3.70
2013,11,19,16,47,3.70
2013,11,19,16,48,3.70
2013,11,19,16,49,3.70
2013,11,19,16,50,3.70
2013,11,19,16,51,3.70
2013,11,19,16,52,3.70
2013,11,19,16,53,3.70
2013,11,19,16,54,3.70
2013,11,19,16,55,3.70
2013,11,19,16,56,3.70
2013,11,19,16,57,3.70
2013,11,19,16,58,3.70
2013,11,19,16,59,3.70
2013,11,19,17,00,3.70
2013,11,19,17,01,3.70
2013,11,19,17,02,3.70
2013,11,19,17,03,3.70
2013,11,19,17,04,3.70
2013,11,19,17,05,3.70
2013,11,19,17,06,3.70
2013,11,19,17,07,3.70
2013,11,19,17,08,3.70
2013,11,19,17,09,3.70
2013,11,19,17,10,3.70
2013,11,19,17,11,3.70
2013,11,19,17,12,3.70
2013,11,19,17,13,3.70
2013,11,19,17,14,3.70
2013,11,19,17,15,3.70
2013,11,19,17,16,3.70
2013,11,19,17,17,3.70
2013,11,19,17,18,3.80
2013,11,19,17,19,3.80
2013,11,19,17,20,3.80
2013,11,19,17,21,3.80
2013,11,19,17,22,3.80
2013,11,19,17,23,3.80
2013,11,19,17,24,3.80
2013,11,19,17,25,3.80
2013,11,19,17,26,3.80
2013,11,19,17,27,3.80
2013,11,19,17,28,3.80
2013,11,19,17,29,3.80
2013,11,19,17,30,3.80
2013,11,19,17,31,3.80
2013,11,19,17,32,3.80
2013,11,19,17,33,3.80
2013,11,19,17,34,3.80
2013,11,19,17,35,3.80
2013,11,19,17,36,3.80
2013,11,19,17,37,3.80
2013,11,19,17,38,3.80
2013,11,19,17,39,3.80
2013,11,19,17,40,3.80
2013,11,19,17,41,3.80
2013,11,19,17,42,3.80
2013,11,19,17,43,3.80
2013,11,19,17,44,3.80
2013,11,19,17,45,3.80
2013,11,19,17,46,3.80
2013,11,19,17,47,3.80
2013,11,19,17,48,3.80
2013,11,19,17,49,3.90
2013,11,19,17,50,3.90
2013,11,19,17,51,3.90
2013,11,19,17,52,3.90
2013,11,19,17,53,3.90
2013,11,19,17,54,3.90
2013,11,19,17,55,3.80
2013,11,19,17,56,3.80
2013,11,19,17,57,3.80
2013,11,19,17,58,3.80
2013,11,19,17,59,3.80
2013,11,19,18,00,3.80
2013,11,19,18,01,3.80
2013,11,19,18,02,3.80
2013,11,19,18,03,3.80
2013,11,19,18,04,3.80
2013,11,19,18,05,3.80
2013,11,19,18,06,3.80
2013,11,19,18,07,3.80
2013,11,19,18,08,3.70
2013,11,19,18,09,3.70
2013,11,19,18,10,3.70
2013,11,19,18,11,3.70
2013,11,19,18,12,3.70
2013,11,19,18,13,3.70
2013,11,19,18,14,3.70
2013,11,19,18,15,3.70
2013,11,19,18,16,3.70
2013,11,19,18,17,3.70
2013,11,19,18,18,3.70
2013,11,19,18,19,3.60
2013,11,19,18,20,3.60
2013,11,19,18,21,3.60
2013,11,19,18,22,3.60
2013,11,19,18,23,3.50
2013,11,19,18,24,3.50
2013,11,19,18,25,3.40
2013,11,19,18,26,3.40
2013,11,19,18,27,3.40
2013,11,19,18,28,3.40
2013,11,19,18,29,3.30
2013,11,19,18,30,3.30
2013,11,19,18,31,3.30
2013,11,19,18,32,3.30
2013,11,19,18,33,3.30
2013,11,19,18,34,3.30
2013,11,19,18,35,3.30
2013,11,19,18,36,3.30
2013,11,19,18,37,3.30
2013,11,19,18,38,3.30
2013,11,19,18,39,3.30
2013,11,19,18,40,3.20
2013,11,19,18,41,3.20
2013,11,19,18,42,3.20
2013,11,19,18,43,3.20
2013,11,19,18,44,3.20
2013,11,19,18,45,3.10
2013,11,19,18,46,3.10
2013,11,19,18,47,3.10
2013,11,19,18,48,3.10
2013,11,19,18,49,3.10
2013,11,19,18,50,3.00
2013,11,19,18,51,3.00
2013,11,19,18,52,3.00
2013,11,19,18,53,2.90
2013,11,19,18,54,2.90
2013,11,19,18,55,2.90
2013,11,19,18,56,2.80
2013,11,19,18,57,2.80
2013,11,19,18,58,2.80
2013,11,19,18,59,2.80
2013,11,19,19,00,2.80
2013,11,19,19,01,2.70
2013,11,19,19,02,2.70
2013,11,19,19,03,2.70
2013,11,19,19,04,2.60
2013,11,19,19,05,2.60
2013,11,19,19,06,2.60
2013,11,19,19,07,2.50
2013,11,19,19,08,2.50
2013,11,19,19,09,2.50
2013,11,19,19,10,2.40
2013,11,19,19,11,2.40
2013,11,19,19,12,2.40
2013,11,19,19,13,2.30
2013,11,19,19,14,2.30
2013,11,19,19,15,2.30
2013,11,19,19,16,2.30
2013,11,19,19,17,2.30
2013,11,19,19,18,2.20
2013,11,19,19,19,2.20
2013,11,19,19,20,2.20
2013,11,19,19,21,2.10
2013,11,19,19,22,2.10
2013,11,19,19,23,2.00
2013,11,19,19,24,2.00
2013,11,19,19,25,2.00
2013,11,19,19,26,1.90
2013,11,19,19,27,1.90
2013,11,19,19,28,1.80
2013,11,19,19,29,1.80
2013,11,19,19,30,1.80
2013,11,19,19,31,1.80
2013,11,19,19,32,1.70
2013,11,19,19,33,1.70
2013,11,19,19,34,1.70
2013,11,19,19,35,1.60
2013,11,19,19,36,1.60
2013,11,19,19,37,1.60
2013,11,19,19,38,1.60
2013,11,19,19,39,1.50
2013,11,19,19,40,1.50
2013,11,19,19,41,1.50
2013,11,19,19,42,1.40
2013,11,19,19,43,1.40
2013,11,19,19,44,1.40
2013,11,19,19,45,1.30
2013,11,19,19,46,1.30
2013,11,19,19,47,1.30
2013,11,19,19,48,1.30
2013,11,19,19,49,1.30
2013,11,19,19,50,1.20
2013,11,19,19,51,1.20
2013,11,19,19,52,1.20
2013,11,19,19,53,1.20
2013,11,19,19,54,1.10
2013,11,19,19,55,1.10
2013,11,19,19,56,1.10
2013,11,19,19,57,1.10
2013,11,19,19,58,1.10
2013,11,19,19,59,1.10
2013,11,19,20,00,1.00
2013,11,19,20,01,1.00
2013,11,19,20,02,1.00
2013,11,19,20,03,0.90
2013,11,19,20,04,0.90
2013,11,19,20,05,0.90
2013,11,19,20,06,0.90
2013,11,19,20,07,0.80
2013,11,19,20,08,0.80
2013,11,19,20,09,0.80
2013,11,19,20,10,0.80
2013,11,19,20,11,0.80
2013,11,19,20,12,0.70
2013,11,19,20,13,0.70
2013,11,19,20,14,0.70
2013,11,19,20,15,0.70
2013,11,19,20,16,0.70
2013,11,19,20,17,0.60
2013,11,19,20,18,0.60
2013,11,19,20,19,0.60
2013,11,19,20,20,0.60
2013,11,19,20,21,0.50
2013,11,19,20,22,0.50
2013,11,19,20,23,0.50
2013,11,19,20,24,0.40
2013,11,19,20,25,0.40
2013,11,19,20,26,0.40
2013,11,19,20,27,0.40
2013,11,19,20,28,0.40
2013,11,19,20,29,0.40
2013,11,19,20,30,0.30
2013,11,19,20,31,0.30
2013,11,19,20,32,0.30
2013,11,19,20,33,0.30
2013,11,19,20,34,0.30
2013,11,19,20,35,0.20
2013,11,19,20,36,0.20
2013,11,19,20,37,0.20
2013,11,19,20,38,0.20
2013,11,19,20,39,0.20
2013,11,19,20,40,0.10
2013,11,19,20,41,0.10
2013,11,19,20,42,0.10
2013,11,19,20,43,0.10
2013,11,19,20,44,0.00
2013,11,19,20,45,0.00
2013,11,19,20,46,0.00
2013,11,19,20,47,-0.10
2013,11,19,20,48,-0.10
2013,11,19,20,49,-0.10
2013,11,19,20,50,-0.10
2013,11,19,20,51,-0.20
2013,11,19,20,52,-0.20
2013,11,19,20,53,-0.20
2013,11,19,20,54,-0.20
2013,11,19,20,55,-0.20
2013,11,19,20,56,-0.20
2013,11,19,20,57,-0.20
2013,11,19,20,58,-0.30
2013,11,19,20,59,-0.30
2013,11,19,21,00,-0.30
2013,11,19,21,01,-0.30
2013,11,19,21,02,-0.30
2013,11,19,21,03,-0.40
2013,11,19,21,04,-0.40
2013,11,19,21,05,-0.40
2013,11,19,21,06,-0.40
2013,11,19,21,07,-0.40
2013,11,19,21,08,-0.50
2013,11,19,21,09,-0.50
2013,11,19,21,10,-0.50
2013,11,19,21,11,-0.50
2013,11,19,21,12,-0.40
2013,11,19,21,13,-0.50
2013,11,19,21,14,-0.50
2013,11,19,21,15,-0.50
2013,11,19,21,16,-0.50
2013,11,19,21,17,-0.50
2013,11,19,21,18,-0.50
2013,11,19,21,19,-0.60
2013,11,19,21,20,-0.60
2013,11,19,21,21,-0.60
2013,11,19,21,22,-0.60
2013,11,19,21,23,-0.60
2013,11,19,21,24,-0.70
2013,11,19,21,25,-0.70
2013,11,19,21,26,-0.70
2013,11,19,21,27,-0.70
2013,11,19,21,28,-0.70
2013,11,19,21,29,-0.70
2013,11,19,21,30,-0.70
2013,11,19,21,31,-0.70
2013,11,19,21,32,-0.70
2013,11,19,21,33,-0.70
2013,11,19,21,34,-0.70
2013,11,19,21,35,-0.70
2013,11,19,21,36,-0.70
2013,11,19,21,37,-0.80
2013,11,19,21,38,-0.80
2013,11,19,21,39,-0.80
2013,11,19,21,40,-0.80
2013,11,19,21,41,-0.80
2013,11,19,21,42,-0.80
2013,11,19,21,43,-0.80
2013,11,19,21,44,-0.80
2013,11,19,21,45,-0.80
2013,11,19,21,46,-0.80
2013,11,19,21,47,-0.90
2013,11,19,21,48,-0.90
2013,11,19,21,49,-0.90
2013,11,19,21,50,-0.90
2013,11,19,21,51,-0.90
2013,11,19,21,52,-0.80
2013,11,19,21,53,-0.80
2013,11,19,21,54,-0.80
2013,11,19,21,55,-0.80
2013,11,19,21,56,-0.80
2013,11,19,21,57,-0.80
2013,11,19,21,58,-0.80
2013,11,19,21,59,-0.80
2013,11,19,22,00,-0.80
2013,11,19,22,01,-0.80
2013,11,19,22,02,-0.80
2013,11,19,22,03,-0.90
2013,11,19,22,04,-0.90
2013,11,19,22,05,-0.90
2013,11,19,22,06,-0.80
2013,11,19,22,07,-0.90
2013,11,19,22,08,-0.80
2013,11,19,22,09,-0.80
2013,11,19,22,10,-0.80
2013,11,19,22,11,-0.80
2013,11,19,22,12,-0.80
2013,11,19,22,13,-0.80
2013,11,19,22,14,-0.80
2013,11,19,22,15,-0.80
2013,11,19,22,16,-0.80
2013,11,19,22,17,-0.80
2013,11,19,22,18,-0.80
2013,11,19,22,19,-0.80
2013,11,19,22,20,-0.80
2013,11,19,22,21,-0.80
2013,11,19,22,22,-0.80
2013,11,19,22,23,-0.80
2013,11,19,22,24,-0.80
2013,11,19,22,25,-0.80
2013,11,19,22,26,-0.80
2013,11,19,22,27,-0.80
2013,11,19,22,28,-0.80
2013,11,19,22,29,-0.80
2013,11,19,22,30,-0.80
2013,11,19,22,31,-0.80
2013,11,19,22,32,-0.90
2013,11,19,22,33,-0.90
2013,11,19,22,34,-0.90
2013,11,19,22,35,-0.90
2013,11,19,22,36,-1.00
2013,11,19,22,37,-1.00
2013,11,19,22,38,-1.00
2013,11,19,22,39,-1.00
2013,11,19,22,40,-1.00
2013,11,19,22,41,-1.10
2013,11,19,22,42,-1.10
2013,11,19,22,43,-1.10
2013,11,19,22,44,-1.10
2013,11,19,22,45,-1.10
2013,11,19,22,46,-1.00
2013,11,19,22,47,-1.00
2013,11,19,22,48,-1.00
2013,11,19,22,49,-0.90
2013,11,19,22,50,-0.90
2013,11,19,22,51,-0.90
2013,11,19,22,52,-0.90
2013,11,19,22,53,-0.90
2013,11,19,22,54,-0.90
2013,11,19,22,55,-0.90
2013,11,19,22,56,-0.90
2013,11,19,22,57,-0.90
2013,11,19,22,58,-0.90
2013,11,19,22,59,-0.90
2013,11,19,23,00,-0.90
2013,11,19,23,01,-0.90
2013,11,19,23,02,-0.90
2013,11,19,23,03,-1.00
2013,11,19,23,04,-1.00
2013,11,19,23,05,-0.90
2013,11,19,23,06,-0.90
2013,11,19,23,07,-1.00
2013,11,19,23,08,-1.00
2013,11,19,23,09,-1.00
2013,11,19,23,10,-1.00
2013,11,19,23,11,-1.10
2013,11,19,23,12,-1.10
2013,11,19,23,13,-1.10
2013,11,19,23,14,-1.10
2013,11,19,23,15,-1.10
2013,11,19,23,16,-1.20
2013,11,19,23,17,-1.20
2013,11,19,23,18,-1.20
2013,11,19,23,19,-1.20
2013,11,19,23,20,-1.20
2013,11,19,23,21,-1.20
2013,11,19,23,22,-1.20
2013,11,19,23,23,-1.20
2013,11,19,23,24,-1.30
2013,11,19,23,25,-1.30
2013,11,19,23,26,-1.30
2013,11,19,23,27,-1.30
2013,11,19,23,28,-1.30
2013,11,19,23,29,-1.30
2013,11,19,23,30,-1.30
2013,11,19,23,31,-1.30
2013,11,19,23,32,-1.30
2013,11,19,23,33,-1.40
2013,11,19,23,34,-1.30
2013,11,19,23,35,-1.30
2013,11,19,23,36,-1.30
2013,11,19,23,37,-1.30
2013,11,19,23,38,-1.20
2013,11,19,23,39,-1.20
2013,11,19,23,40,-1.20
2013,11,19,23,41,-1.20
2013,11,19,23,42,-1.20
2013,11,19,23,43,-1.30
2013,11,19,23,44,-1.30
2013,11,19,23,45,-1.30
2013,11,19,23,46,-1.30
2013,11,19,23,47,-1.40
2013,11,19,23,48,-1.40
2013,11,19,23,49,-1.40
2013,11,19,23,50,-1.40
2013,11,19,23,51,-1.40
2013,11,19,23,52,-1.40
2013,11,19,23,53,-1.40
2013,11,19,23,54,-1.40
2013,11,19,23,55,-1.40
2013,11,19,23,56,-1.40
2013,11,19,23,57,-1.40
2013,11,19,23,58,-1.50
2013,11,19,23,59,-1.50
